Terminal Aerodrome Forecast
Issued by NWS

Home | Current Version | Previous Version | Text Only | Print | Product List | Glossary On
Versions: 1 2 3 4 5 6 7 8 9 10 11 12 13 14 15 16 17 18 19
000
FTUS41 KCAR 232320
TAFBHB
TAF
KBHB 232320Z 2400/2424 28006KT P6SM FEW120
     FM241200 23010G18KT P6SM BKN070
     FM242200 30008KT P6SM SCT090
      AMD LTD TO CLD VIS AND WIND=

USA.gov is the U.S. government's official web portal to all federal, state and local government web resources and services.